"Pseudo-MPEC" for C3TEUJ1

Created 2023 Sep 27 1:22:03 UT using Find_Orb

Click here for an explanation of pseudo-MPECs

 
 Astrometry: 
     C3TEUJ1*1C2023 09 18.32522001 48 13.424-04 44 06.32   ~9ICb       VNEOCP703
     C3TEUJ1 1C2023 09 18.33054401 48 13.147-04 44 10.07   ~9ICb 18.71GVNEOCP703
     C3TEUJ1 1C2023 09 18.33586801 48 12.899-04 44 14.10   ~9ICb 18.34GVNEOCP703
     C3TEUJ1 1C2023 09 18.34119901 48 12.575-04 44 20.15   ~9ICb       VNEOCP703
     C3TEUJ1 KB2023 09 19eEJ:)FDk``mA]--HypMgoh/\kctqhSLSyPG\vk'7+uXh(fk'6rH,M45
     C3TEUJ1 KB2023 09 19:1B+u=cp(pIY=`Ubglnb%Astrometry\kE'L[yuA9`E[[!xQ*nU=M45
     C3TEUJ1 KB2023 09 191;rt(redacted;?hEx$6w`2_k.SRLR3-S28]ZclickmlbM@khereM45
     C3TEUJ1 KB2023 09 19Fb6x@uB-@h;s@gK-t$sgTforZpCw@hC\XA8p]4explanation$#?M45

Station data:
(703) Catalina Sky Survey  (N32.417003 W110.732640)  US/Arizona.  Observer E.
   J. Christensen. 0.68 m Schmidt + 10K CCD.
(M45) Starhopper Observatory, Sfantu Gheorghe  (N45.865582 E25.768900)
   Romania.  Observer F. Ursache. 0.41-m f/7.5 reflector + CMO.

Orbital elements:  C3TEUJ1
   Perihelion 2023 Jan 31.70468 +/- 192 TT = 16:54:44 (JD 2459976.20468)
Epoch 2023 Sep 19.0 TT = JDT 2460206.5   Earth MOID: 0.3176   Ma: 0.0536
M 124.49041329 +/- 80               (J2000 ecliptic)             AutoNEOCP
n   0.54056857 +/- 0.21             Peri.  103.10381 +/- 40
a   1.49245822 +/- 0.387            Node   127.76418 +/- 39
e   0.1294441 +/- 0.158             Incl.    7.18950 +/- 3.8
P   1.82/665.95d           H 17.71  G  0.15   U 11.7  SR
q 1.29926828 +/- 0.239    Q 1.68564817 +/- 0.936
From 8 observations 2023 Sept. 18-19 (17.0 hr); mean residual 0".42
Residuals in arcseconds: 
230918 703  .23-  .48-    230918 703  .12-  .67-    230919 M45  .25-  .05+    
230918 703  .11-  .32+    230919 M45  .60+  .17-    230919 M45  .53-  .33-    
230918 703  .45+  .83+    230919 M45  .18+  .45+    

Ephemerides (geocentric):
Date (UTC) HH   RA             Dec           delta  r     elong  mag " sig PA
---- --------  ------------   ------------  ------ ------ -----  --- --------
2023 09 27 01  01 39 25.465   -06 47 46.72  .65694 1.6270 156.8 18.7 1219 124
2023 09 27 02  01 39 22.518   -06 48 21.56  .65689 1.6271 156.8 18.7 1233 124
2023 09 27 03  01 39 19.568   -06 48 56.39  .65685 1.6271 156.9 18.7 1247 124
2023 09 27 04  01 39 16.615   -06 49 31.21  .65681 1.6272 156.9 18.7 1261 124
2023 09 27 05  01 39 13.658   -06 50 06.02  .65676 1.6272 156.9 18.7 1275 124
2023 09 27 06  01 39 10.697   -06 50 40.81  .65672 1.6273 157.0 18.7 1290 124
2023 09 27 07  01 39 07.734   -06 51 15.58  .65668 1.6273 157.0 18.7 1304 123
2023 09 27 08  01 39 04.766   -06 51 50.35  .65664 1.6274 157.1 18.7 1319 123
2023 09 27 09  01 39 01.795   -06 52 25.10  .65660 1.6274 157.1 18.7 1334 123
2023 09 27 10  01 38 58.821   -06 52 59.83  .65655 1.6275 157.1 18.7 1348 123
2023 09 27 11  01 38 55.843   -06 53 34.55  .65651 1.6275 157.2 18.7 1363 123
2023 09 27 12  01 38 52.862   -06 54 09.26  .65647 1.6276 157.2 18.6 1378 123
2023 09 27 13  01 38 49.877   -06 54 43.96  .65643 1.6276 157.2 18.6 1393 123
2023 09 27 14  01 38 46.889   -06 55 18.64  .65639 1.6277 157.3 18.6 1408 123
2023 09 27 15  01 38 43.898   -06 55 53.30  .65635 1.6277 157.3 18.6 1424 123
2023 09 27 16  01 38 40.903   -06 56 27.95  .65631 1.6278 157.4 18.6 1439 123
2023 09 27 17  01 38 37.905   -06 57 02.59  .65628 1.6278 157.4 18.6 1455 123
2023 09 27 18  01 38 34.903   -06 57 37.21  .65624 1.6279 157.4 18.6 1470 123
2023 09 27 19  01 38 31.898   -06 58 11.82  .65620 1.6279 157.5 18.6 1486 123
2023 09 27 20  01 38 28.890   -06 58 46.41  .65616 1.6280 157.5 18.6 1502 123
2023 09 27 21  01 38 25.878   -06 59 20.99  .65612 1.6280 157.5 18.6 1518 123
2023 09 27 22  01 38 22.863   -06 59 55.56  .65609 1.6281 157.6 18.6 1534 123
2023 09 27 23  01 38 19.844   -07 00 30.11  .65605 1.6281 157.6 18.6 1550 123
2023 09 28 00  01 38 16.822   -07 01 04.64  .65601 1.6282 157.6 18.6 1566 123
2023 09 28 01  01 38 13.797   -07 01 39.16  .65598 1.6282 157.7 18.6 1582 123
2023 09 28 02  01 38 10.769   -07 02 13.66  .65594 1.6283 157.7 18.6 1599 123
2023 09 28 03  01 38 07.737   -07 02 48.15  .65591 1.6283 157.7 18.6 1615 123
2023 09 28 04  01 38 04.702   -07 03 22.62  .65587 1.6284 157.8 18.6 1632 123
2023 09 28 05  01 38 01.663   -07 03 57.08  .65584 1.6284 157.8 18.6 1649 123
2023 09 28 06  01 37 58.621   -07 04 31.52  .65580 1.6285 157.9 18.6 1666 123
2023 09 28 07  01 37 55.576   -07 05 05.94  .65577 1.6285 157.9 18.6 1683 123
2023 09 28 08  01 37 52.528   -07 05 40.35  .65573 1.6286 157.9 18.6 1700 123
2023 09 28 09  01 37 49.477   -07 06 14.74  .65570 1.6286 158.0 18.6 1717 123
2023 09 28 10  01 37 46.422   -07 06 49.12  .65567 1.6287 158.0 18.6 1734 123
2023 09 28 11  01 37 43.364   -07 07 23.48  .65564 1.6287 158.0 18.6 1752 123
2023 09 28 12  01 37 40.302   -07 07 57.83  .65560 1.6288 158.1 18.6 1769 123
2023 09 28 13  01 37 37.238   -07 08 32.16  .65557 1.6288 158.1 18.6 1787 123
2023 09 28 14  01 37 34.170   -07 09 06.47  .65554 1.6289 158.1 18.6 1805 123
2023 09 28 15  01 37 31.099   -07 09 40.76  .65551 1.6289 158.2 18.6 1822 123
2023 09 28 16  01 37 28.025   -07 10 15.04  .65548 1.6290 158.2 18.6 1840 123
2023 09 28 17  01 37 24.947   -07 10 49.31  .65545 1.6290 158.2 18.6 1858 123
2023 09 28 18  01 37 21.867   -07 11 23.55  .65541 1.6291 158.3 18.6 1877 123
2023 09 28 19  01 37 18.783   -07 11 57.78  .65538 1.6291 158.3 18.6 1895 123
2023 09 28 20  01 37 15.696   -07 12 31.99  .65535 1.6292 158.3 18.6 1913 123
2023 09 28 21  01 37 12.606   -07 13 06.19  .65533 1.6292 158.4 18.6 1932 123
2023 09 28 22  01 37 09.513   -07 13 40.36  .65530 1.6293 158.4 18.6 1951 123
2023 09 28 23  01 37 06.416   -07 14 14.52  .65527 1.6293 158.5 18.6 1969 123
2023 09 29 00  01 37 03.317   -07 14 48.67  .65524 1.6294 158.5 18.6 1988 123